Погода в Фоках

Россия / Пермский край     56°41′33″N   54°21′11″E
темп.,
°C
ветер,
м/с
пор.,
м/с
влажн.,
%
обл.,
%
осадки,
мм/ч
давл.,
гПа
погр.,
м
8 мая, сб
сб823:00+12ююв2575100 0.1 1016114
02:00+10ю237877 0.0 101668
05:00+10ююз227880 0.0 101725
08:00+13ююз1266100 0.0 1017191
11:00+18ююз2248100 0.0 1017842
14:00+19ююз3438100 0.0 10162136
17:00+17зсз2350100 0.1 1016514
20:00+15всв22708 0.4 101758
9 мая, вс
вс923:00+11юв11805 0.4 101712
02:00+10юв22845 0.0 101718
05:00+9ююв22905 0.0 101714
08:00+13юв35690 0.0 1017220
11:00+19ююв46450 0.0 10161209
14:00+22ююв453420 0.0 10162378
17:00+22ю443211 0.0 10162573
20:00+19юв25495 0.0 1016130
10 мая, пн
пн1023:00+14юв246384 0.0 101758
02:00+14юв3860100 0.0 1017134
05:00+14ююв285889 0.0 1018185
08:00+15ю1760100 0.0 1020274
11:00+21ю4642100 0.0 10201002
14:00+22юз5641100 0.0 10202129
17:00+16сз3577100 0.6 1022465
20:00+12ссз4789100 2.4 1025546
11 мая, вт
вт1123:00+10ссз3892100 2.6 1026533
02:00+9с3887100 0.0 1027549
05:00+5с310910 0.0 1029395
08:00+8с411695 0.0 1030673
11:00+13ссв57420 0.0 10311259
14:00+16с453518 0.0 10301542
17:00+17с453435 0.0 10291665
20:00+14ссв234756 0.0 103082
12 мая, ср
ср1223:00+9сз116095 0.0 103010
02:00+8сз1168100 0.0 103110
05:00+10зсз1166100 0.0 103030
08:00+12зсз2663100 0.0 1030250
11:00+18сз365494 0.0 1028739
14:00+22сз4644100 0.0 10271765
17:00+23сз4640100 0.0 10262226
20:00+20ссз265530 0.0 1026154